Location: *
(52.6550°N, 61.6850°W)
Time: 04:49:19
(UTC+00:00)

Daily predictions for brighter satellites

Satellite Brightness Start Highest point End
(mag) Time Altitude Azimuth Time Altitude Azimuth Time Altitude Azimuth
ATLAS 2AS CENTAUR R/B 4.4 00:50:51 10° NW 00:54:54 31° NNW 00:54:54 31° NNW
ATLAS 5 CENTAUR R/B 4.3 07:56:53 16° NE 07:56:53 16° NE 07:58:06 10° NE
GEOS 3 Rocket 4.2 08:27:20 10° ESE 08:31:20 53° E 08:31:20 53° E
Cosmos 1452 Rocket 4.1 08:37:27 56° E 08:37:27 56° E 08:42:05 10° NNE
Cosmos 1634 Rocket 4.3 08:36:36 10° S 08:42:39 63° E 08:48:45 10° NNE
Cosmos 2263 Rocket 2.2 08:47:40 73° ENE 08:47:40 73° ENE 08:52:48 10° NNE
Cosmos 2195 Rocket 4.4 08:49:31 80° SW 08:49:31 80° SW 08:55:34 10° S
Cosmos 1627 Rocket 4.4 08:49:08 74° NNW 08:49:48 87° W 08:56:08 10° S
Meteor 1-19 Rocket 4.1 08:57:16 70° N 08:57:55 84° ENE 09:03:36 10° SSE
COSMO-SKYMED 1 3.6 08:54:19 10° SSE 08:57:12 41° SE 08:57:12 41° SE
Cosmos 1833 Rocket 4.5 08:59:02 18° N 09:01:39 25° NE 09:06:16 10° E
Cosmos 1655 Rocket 4.3 09:02:32 10° N 09:08:45 65° ENE 09:14:57 10° SSE
Cosmos 1484 Rocket 4.5 09:04:55 10° NNE 09:06:51 26° NNE 09:06:51 26° NNE
Meteor 1-20 Rocket 4.1 09:10:03 48° SSW 09:11:43 76° WNW 09:17:33 10° N
Cosmos 2221 Rocket 4.1 09:14:26 50° S 09:14:26 50° S 09:17:43 10° S
Cosmos 2297 Rocket 4.0 09:15:52 18° N 09:15:52 18° N 09:18:22 10° NNE
Cosmos 1844 Rocket 4.1 09:13:09 10° S 09:18:12 37° ESE 09:23:17 10° NE
Cosmos 2227 Rocket 3.9 09:21:06 18° N 09:21:06 18° N 09:23:46 10° NNE
Cosmos 44 3.5 09:19:27 41° S 09:20:50 62° SE 09:25:16 10° NE
Cosmos 2227 4.4 09:23:18 51° NW 09:23:18 51° NW 09:28:48 10° NNE
Okean O Rocket 3.1 09:20:37 10° NNE 09:24:46 38° E 09:28:52 10° SSE
COSMOS 2406 3.9 09:24:23 24° NNW 09:27:39 50° NE 09:33:09 10° SE
Geosat 3.9 09:22:51 10° SSE 09:27:53 73° WSW 09:28:47 58° WNW
CZ-4B R/B 4.4 09:23:33 10° NNE 09:28:56 45° E 09:34:20 10° S
ALOS 2.7 09:25:03 10° NNE 09:29:43 61° E 09:34:20 10° S
ATLAS CENTAUR R/B 1.3 09:31:13 73° N 09:31:30 78° NE 09:35:29 10° SE
Cosmos 1110 Rocket 4.4 09:27:09 10° S 09:32:16 64° ESE 09:37:24 10° NNE
PSLV R/B 3.8 09:28:27 10° NNE 09:32:36 88° WNW 09:36:44 10° SSW
Cosmos 371 Rocket 3.7 09:28:39 10° SSW 09:33:27 64° ESE 09:38:18 10° NNE
Cosmos 1674 Rocket 3.9 09:31:21 23° N 09:33:59 64° ENE 09:38:15 10° SSE
SJ-12 4.0 09:30:59 10° NNE 09:35:09 78° ESE 09:39:15 10° S
ADEOS Rocket 4.0 09:30:50 10° SE 09:37:01 47° ENE 09:42:40 10° N
ATLAS 5 CENTAUR R/B 3.2 09:38:24 25° NNW 09:38:58 26° N 09:43:31 10° NE
Cosmos 2266 Rocket 4.1 09:34:52 10° N 09:41:08 76° ENE 09:47:13 10° SSE
Meteor 1-13 Rocket 4.1 09:40:09 14° NNW 09:45:03 86° W 09:50:40 10° S
Cosmos 1536 4.1 09:41:54 10° SSE 09:45:44 42° E 09:49:35 10° NNE
Cosmos 1420 Rocket 4.5 09:46:22 38° NW 09:46:22 38° NW 09:50:55 10° NNE
SKYMED 2 4.3 09:42:43 10° S 09:45:51 36° SW 09:45:51 36° SW
Cosmos 1500 3.4 09:44:57 10° S 09:48:45 68° E 09:52:33 10° NNE
Cosmos 1486 Rocket 4.1 09:45:19 22° NNW 09:48:51 74° ENE 09:54:06 10° SSE
Cosmos 2082 Rocket 3.6 09:45:35 14° NNW 09:49:48 33° NE 09:54:50 10° ESE
Cosmos 1378 Rocket 3.8 09:46:16 13° N 09:50:09 69° ENE 09:54:35 10° SSE
NOSS 3-3 (A) 4.4 09:46:58 29° NW 09:51:08 74° SW 09:59:17 10° SSE
NOSS 3-3 (C) 4.4 09:47:04 29° NW 09:51:13 74° SW 09:59:23 10° SSE
Cosmos 2180 Rocket 4.4 09:48:30 10° SSW 09:54:39 83° W 10:00:54 10° N
Cosmos 2026 Rocket 4.5 09:54:40 32° WNW 09:55:54 35° W 10:01:27 10° SSW
Okean 3 3.8 09:56:26 42° WSW 09:56:26 42° WSW 10:00:07 10° SSW
Meteor 1-23 Rocket 4.5 09:53:24 10° N 09:59:14 73° ENE 10:04:58 10° SSE
Cosmos 1346 Rocket 4.0 10:02:04 25° NNW 10:02:04 25° NNW 10:04:02 10° N
USA 234 3.4 09:57:42 10° ENE 10:04:16 75° SSE 10:10:48 10° SW
USA 81 4.3 10:01:15 10° N 10:06:33 73° E 10:11:49 10° SSE
PAYLOAD B 4.1 10:04:15 10° NNE 10:09:48 77° WNW 10:15:20 10° SSW
GEOS 3 Rocket 4.4 10:06:11 10° S 10:10:46 33° WSW 10:12:27 27° W
Cosmos 2279 Rocket 4.1 10:07:16 10° SSW 10:13:19 53° WNW 10:19:27 10° N
CZ-2C R/B 4.1 10:12:05 10° N 10:13:02 14° NNW 10:13:02 14° NNW
Cosmos 2292 Rocket 4.2 10:10:20 10° NNW 10:17:09 82° W 10:22:10 10° S
Cosmos 44 Rocket 4.3 10:13:41 10° SSW 10:18:21 48° SE 10:22:57 10° NE
Cosmos 1452 Rocket 4.3 10:17:51 26° WNW 10:19:22 30° NW 10:24:01 10° NNE
Helios 1A Rocket 2.7 10:15:22 10° NNE 10:19:25 75° WNW 10:23:26 10° SSW
Meteor 1-11 Rocket 3.8 10:14:02 10° SSW 10:19:51 85° WNW 10:25:51 10° NNE
Cosmos 389 Rocket 4.1 10:17:05 10° N 10:20:18 32° ENE 10:23:28 10° SE
SL-23 DEB 3.8 10:18:58 24° WSW 10:20:38 58° SSE 10:24:11 10° E
IRIDIUM 106 4.3 10:17:17 10° N 10:22:32 84° W 10:27:45 10° S
Meteor 1-5 Rocket 4.2 10:18:47 10° SSW 10:24:40 68° WNW 10:30:24 10° N
Orbus 7S? 3.0 10:23:59 17° SW 10:25:45 55° SSE 10:28:37 10° ENE
Meteor 2-4 Rocket 4.3 10:22:28 17° NW 10:25:55 33° W 10:30:39 10° SSW
Cosmos 304 Rocket 3.8 10:21:46 10° SSW 10:26:34 86° ESE 10:31:23 10° NNE
Cosmos 968 Rocket 3.4 10:22:02 13° NNW 10:26:42 89° WSW 10:31:49 10° SSE
Cosmos 1908 Rocket 3.8 10:22:14 10° S 10:26:42 76° E 10:31:09 10° NNE
Cosmos 1302 Rocket 4.1 10:21:46 10° SSW 10:27:05 86° ESE 10:32:25 10° NNE
CZ-2C R/B 4.1 10:22:23 10° SSE 10:27:07 70° ENE 10:31:54 10° NNW
Cosmos 405 4.0 10:29:12 26° W 10:29:23 26° W 10:32:22 10° SSW
Cosmos 1066 Rocket 4.1 10:25:00 10° NNW 10:30:35 81° W 10:36:01 10° S
Cosmos 2263 Rocket 3.1 10:29:24 21° WNW 10:31:45 28° NW 10:36:31 10° NNE
Cosmos 2278 Rocket 4.0 10:27:14 10° S 10:32:19 35° ESE 10:37:26 10° NE
Cosmos 1666 2.6 10:28:45 10° S 10:32:33 87° E 10:36:21 10° NNE
Cosmos 1503 Rocket 4.0 10:27:34 11° NNW 10:32:42 88° WSW 10:38:04 10° SSE
COSMO-SKYMED 1 4.3 10:32:30 10° SW 10:34:25 16° WSW 10:34:25 16° WSW
NOAA 6 4.0 10:32:24 10° N 10:37:26 58° WNW 10:42:27 10° SW
Cosmos 2098 Rocket 4.2 10:35:08 10° N 10:39:13 49° ENE 10:44:20 10° SSE
FENGYUN 3A 3.9 10:34:49 10° N 10:39:56 44° WNW 10:45:00 10° SW
METEOR-M 4.5 10:36:49 10° N 10:41:51 42° WNW 10:46:51 10° SW
Cosmos 1484 Rocket 4.3 10:40:07 10° NNW 10:42:11 18° NW 10:42:11 18° NW
SJ 16-02 4.1 10:43:34 10° NNE 10:43:50 10° NE 10:44:08 10° NE
Cosmos 1733 Rocket 3.7 10:41:51 10° SW 10:45:46 33° WNW 10:49:44 10° N
Cosmos 1354 Rocket 4.0 10:40:51 10° NNW 10:46:11 77° WSW 10:51:30 10° SSE
Cosmos 1833 Rocket 2.7 10:40:44 10° NNW 10:46:23 87° ENE 10:52:02 10° SSE
Nadezhda 2 Rocket 4.4 10:46:47 10° NNW 10:52:53 71° W 10:58:57 10° S
SMAP 3.0 10:49:39 10° NNE 10:54:21 82° WNW 10:59:00 10° SSW
Cosmos 332 Rocket 4.3 10:49:55 10° SW 10:54:31 39° NW 10:59:08 10° NNE
Cosmos 1331 Rocket 4.5 10:52:32 10° WSW 10:57:20 37° NW 11:02:11 10° NNE
NOSS 3-2 (A) 3.5 10:54:25 10° SW 11:00:23 83° NW 11:07:17 10° NE
Cosmos 2297 Rocket 4.2 10:58:38 10° NNW 11:00:46 12° N 11:02:53 10° NNE
Okean O Rocket 2.3 10:57:09 10° N 11:01:03 31° WNW 11:04:57 10° SW
IRS-1C Rocket 4.1 10:55:49 10° NNE 11:01:06 81° WNW 11:06:22 10° SSW
Cosmos 1844 Rocket 2.8 10:56:34 10° SW 11:01:59 50° NW 11:07:25 10° NNE
Cosmos 44 3.8 10:58:10 10° W 11:02:19 33° NNW 11:06:21 10° NNE
Cosmos 1992 Rocket 4.3 10:57:49 10° SSW 11:02:59 72° ESE 11:08:12 10° NNE
H-2A R/B 2.8 11:01:34 10° N 11:05:14 53° WNW 11:08:56 10° SSW
Cosmos 2227 Rocket 4.2 11:04:04 10° NNW 11:06:11 12° N 11:08:17 10° NNE
ALOS 3.3 11:03:07 10° N 11:06:47 23° WNW 11:10:26 10° WSW
CZ-4B R/B 3.7 11:04:16 10° N 11:09:27 39° WNW 11:14:40 10° SW
ATLAS CENTAUR R/B 3.0 11:07:26 11° WNW 11:09:51 17° WSW 11:12:29 10° SSW
CZ-4 R/B 2.6 11:06:40 10° NNE 11:10:27 45° E 11:14:17 10° S
CENTAUR R/B 3.0 11:04:49 10° SSW 11:10:55 71° SE 11:18:09 10° NE
COSMOS 2406 3.9 11:06:39 10° NW 11:11:51 37° WSW 11:17:00 10° S
Cosmos 1743 2.6 11:08:38 10° SSW 11:12:27 78° WNW 11:16:18 10° N
Cosmos 1844 3.9 11:07:10 10° SW 11:12:49 52° NW 11:18:28 10° NNE
Cosmos 1025 Rocket 3.7 11:08:33 10° N 11:12:50 55° ENE 11:17:04 10° SSE
USA 238 DEB 3.7 11:06:28 10° WSW 11:13:12 70° NW 11:20:15 10° NE
USA 238 3.7 11:06:35 10° WSW 11:13:18 71° NW 11:20:21 10° NE
Cosmos 371 Rocket 4.3 11:10:15 10° WSW 11:14:19 26° NW 11:18:23 10° N
Cosmos 1975 Rocket 3.4 11:10:18 10° NNW 11:14:36 48° W 11:18:53 10° SSW
YAOGAN 6 2.7 11:16:33 10° NNE 11:20:17 87° E 11:24:00 10° SSW
CZ-2C R/B 3.1 11:15:52 10° SSE 11:21:00 60° ENE 11:26:07 10° N
DMSP B5D2-2 4.2 11:16:32 10° SSE 11:21:45 83° ENE 11:26:59 10° NNW
YAOGAN 1 3.8 11:17:44 10° NNE 11:21:57 47° E 11:26:08 10° S
Cosmos 1782 Rocket 3.7 11:17:46 10° SSW 11:22:07 55° WNW 11:26:27 10° N
Cosmos 1536 4.0 11:19:02 10° WSW 11:22:20 23° WNW 11:25:38 10° NNW
ADEOS Rocket 3.6 11:16:29 10° SSW 11:22:40 40° W 11:28:19 10° NNW
Cosmos 1809 Rocket 4.5 11:18:08 10° NNW 11:24:15 71° W 11:30:22 10° S
ATLAS 5 CENTAUR R/B 3.2 11:20:22 10° NW 11:25:02 32° NNE 11:30:21 10° E
Okean-O 2.6 11:23:42 10° N 11:28:09 70° WNW 11:32:32 10° SSW
CORIOLIS 4.2 11:24:46 10° N 11:30:06 60° WNW 11:35:23 10° SSW
Aureole 3 Rocket 3.8 11:24:36 10° S 11:31:00 79° E 11:35:31 10° NNE
Radarsat Rocket 4.5 11:28:07 10° N 11:33:58 45° WNW 11:40:28 10° SW
Meteor 2-21 Rocket 4.5 11:28:09 10° NNW 11:34:17 82° W 11:40:26 10° S
Cosmos 2082 Rocket 2.3 11:28:43 10° NW 11:34:19 65° WSW 11:39:51 10° SSE
Cosmos 1842 3.3 11:31:13 10° NNW 11:35:08 62° W 11:39:02 10° S
BREEZE-M DEB (TANK) 4.5 11:28:12 10° WNW 11:44:26 52° SW 11:48:36 10° SE
